FW5335 Weather Reports


time (UTC)temp
C
wind
direction
speed
KPH
gust
KPH
rain 1hr
cm
rain 24hr
cm
rain mn
cm
humidity
%
barometer
mb
20260906220518 17 0.0 1.6 0.00 0.00 0.00 81 1017.7
20260906215521 17 0.0 3.2 0.00 0.00 0.00 81 1017.7
20260906214520 17 0.0 0.0 0.00 0.00 0.00 81 1017.8
20260906213555 18 0.0 1.6 0.00 0.00 0.00 80 1017.9
20260906212518 18 0.0 1.6 0.00 0.00 0.00 80 1017.7
20260906211522 18 270 3.2 6.4 0.00 0.00 0.00 80 1017.8
20260906210519 18 270 1.6 9.7 0.00 0.00 0.00 79 1017.8
20260906205519 18 270 1.6 4.8 0.00 0.00 0.00 79 1017.8
20260906204521 18 203 3.2 8.0 0.00 0.00 0.00 79 1017.9
20260906203520 18 225 1.6 4.8 0.00 0.00 0.00 77 1017.8
20260906202543 18 225 3.2 4.8 0.00 0.00 0.00 77 1018.0
20260906201519 18 248 4.8 9.7 0.00 0.00 0.00 77 1018.1
20260906200522 18 203 3.2 9.7 0.00 0.00 0.00 76 1018.0
20260906195518 18 203 4.8 9.7 0.00 0.00 0.00 76 1018.0
20260906194521 18 225 6.4 16.1 0.00 0.00 0.00 76 1018.0
20260906193517 19 203 6.4 12.9 0.00 0.00 0.00 76 1017.6
20260906192518 19 248 4.8 11.3 0.00 0.00 0.00 75 1017.5
20260906191519 19 225 1.6 6.4 0.00 0.00 0.00 74 1017.6
20260906190522 20 203 6.4 14.5 0.00 0.00 0.00 73 1017.5
20260906185519 20 203 9.7 17.7 0.00 0.00 0.00 73 1017.3
20260906184520 20 203 9.7 22.5 0.00 0.00 0.00 72 1017.1
20260906183520 20 180 6.4 14.5 0.00 0.00 0.00 72 1017.1
20260906182520 20 203 8.0 14.5 0.00 0.00 0.00 71 1017.1
20260906181520 21 203 6.4 12.9 0.00 0.00 0.00 70 1017.1
20260906180558 21 180 9.7 19.3 0.00 0.00 0.00 69 1017.1
20260906175519 21 180 9.7 19.3 0.00 0.00 0.00 67 1017.0
20260906174539 21 180 8.0 14.5 0.00 0.00 0.00 67 1017.0
20260906173526 22 158 6.4 19.3 0.00 0.00 0.00 65 1017.2
20260906172539 22 158 8.0 12.9 0.00 0.00 0.00 63 1017.4
20260906171520 22 180 8.0 12.9 0.00 0.00 0.00 62 1017.5
20260906170519 23 180 11.3 19.3 0.00 0.00 0.00 59 1017.4
20260906165518 23 180 8.0 17.7 0.00 0.00 0.00 59 1017.3
20260906164520 23 180 9.7 19.3 0.00 0.00 0.00 58 1017.5
20260906163523 23 180 9.7 17.7 0.00 0.00 0.00 57 1017.6
20260906162520 23 158 11.3 19.3 0.00 0.00 0.00 56 1017.5
20260906161520 24 158 11.3 17.7 0.00 0.00 0.00 55 1017.6
20260906160519 25 203 11.3 20.9 0.00 0.00 0.00 52 1017.7
20260906155520 25 180 9.7 19.3 0.00 0.00 0.00 53 1017.8
20260906154520 25 180 8.0 16.1 0.00 0.00 0.00 53 1017.9
20260906153517 25 180 8.0 19.3 0.00 0.00 0.00 50 1018.1
20260906152522 25 180 9.7 24.1 0.00 0.00 0.00 51 1018.1
20260906151519 25 180 12.9 22.5 0.00 0.00 0.00 52 1018.3
20260906150519 25 203 11.3 17.7 0.00 0.00 0.00 50 1018.3
20260906145519 25 203 14.5 25.7 0.00 0.00 0.00 51 1018.4
20260906144517 25 203 11.3 19.3 0.00 0.00 0.00 51 1018.7
20260906143542 25 180 12.9 27.4 0.00 0.00 0.00 50 1018.7
20260906142540 26 203 9.7 17.7 0.00 0.00 0.00 49 1018.9
20260906141521 26 158 11.3 19.3 0.00 0.00 0.00 47 1018.8
20260906140540 25 203 19.3 32.2 0.00 0.00 0.00 44 1018.8
20260906135540 26 180 14.5 27.4 0.00 0.00 0.00 43 1018.8
20260906134539 25 203 16.1 24.1 0.00 0.00 0.00 44 1018.9
20260906133520 26 180 16.1 29.0 0.00 0.00 0.00 44 1019.1
20260906132518 26 180 12.9 25.7 0.00 0.00 0.00 43 1019.3
20260906131519 26 203 9.7 20.9 0.00 0.00 0.00 45 1019.5
20260906130542 26 203 11.3 20.9 0.00 0.00 0.00 44 1019.7
20260906125520 27 180 8.0 20.9 0.00 0.00 0.00 44 1019.8
20260906124517 26 203 12.9 24.1 0.00 0.00 0.00 44 1020.0
20260906123519 26 203 14.5 24.1 0.00 0.00 0.00 47 1020.1
20260906122518 26 203 14.5 27.4 0.00 0.00 0.00 46 1020.2
20260906121521 25 180 16.1 32.2 0.00 0.00 0.00 47 1020.4
20260906120521 25 158 17.7 33.8 0.00 0.00 0.00 46 1020.5
20260906115520 25 203 12.9 24.1 0.00 0.00 0.00 49 1020.4
20260906114518 25 203 12.9 29.0 0.00 0.00 0.00 50 1020.7
20260906113517 24 180 14.5 30.6 0.00 0.00 0.00 50 1020.7
20260906112520 25 203 11.3 19.3 0.00 0.00 0.00 48 1021.0
20260906111520 24 180 12.9 27.4 0.00 0.00 0.00 45 1021.2
20260906110517 25 180 12.9 22.5 0.00 0.00 0.00 44 1021.3
20260906104519 24 180 9.7 19.3 0.00 0.00 0.00 50 1021.5
20260906103517 23 203 8.0 14.5 0.00 0.00 0.00 58 1021.4
20260906102540 22 203 12.9 19.3 0.00 0.00 0.00 61 1021.8
20260906101521 23 158 11.3 24.1 0.00 0.00 0.00 60 1021.9
20260906100519 23 180 11.3 22.5 0.00 0.00 0.00 62 1022.1
20260906095518 22 203 12.9 20.9 0.00 0.00 0.00 62 1022.1
20260906094518 23 203 11.3 25.7 0.00 0.00 0.00 62 1022.0
20260906093518 22 180 12.9 22.5 0.00 0.00 0.00 63 1022.1
20260906092517 22 180 11.3 24.1 0.00 0.00 0.00 64 1022.3
20260906091559 22 203 11.3 24.1 0.00 0.00 0.00 63 1022.3
20260906090558 22 203 8.0 16.1 0.00 0.00 0.00 65 1022.4
20260906085538 22 203 9.7 19.3 0.00 0.00 0.00 66 1022.5
20260906084516 21 135 6.4 12.9 0.00 0.00 0.00 69 1022.6
20260906083516 20 180 8.0 12.9 0.00 0.00 0.00 71 1022.2
20260906082522 20 203 9.7 17.7 0.00 0.00 0.00 73 1022.1
20260906081600 19 180 9.7 19.3 0.00 0.00 0.00 75 1021.8
20260906080520 19 180 9.7 25.7 0.00 0.00 0.00 75 1021.8
20260906075520 18 158 4.8 8.0 0.00 0.00 0.00 78 1022.0
20260906074519 18 135 6.4 14.5 0.00 0.00 0.00 79 1021.8
20260906073520 17 158 8.0 17.7 0.00 0.00 0.00 82 1022.0
20260906072519 16 113 8.0 16.1 0.00 0.00 0.00 85 1021.9
20260906071520 15 90 3.2 6.4 0.00 0.00 0.00 89 1022.0
20260906070519 14 90 1.6 4.8 0.00 0.00 0.00 90 1022.1
20260906065520 13 68 3.2 6.4 0.00 0.00 0.00 91 1021.9
20260906064518 13 90 1.6 4.8 0.00 0.00 0.00 91 1022.1
20260906063518 13 68 1.6 4.8 0.00 0.00 0.00 90 1021.9
20260906062520 13 0.0 3.2 0.00 0.00 0.00 90 1021.9
20260906061521 12 68 1.6 4.8 0.00 0.00 0.00 90 1022.1
20260906060520 12 68 3.2 4.8 0.00 0.00 0.00 89 1022.1
20260906055519 12 68 3.2 6.4 0.00 0.00 0.00 89 1022.3
20260906054520 12 68 1.6 3.2 0.00 0.00 0.00 89 1022.4
20260906053519 13 68 1.6 4.8 0.00 0.00 0.00 89 1022.2
20260906052521 13 68 3.2 6.4 0.00 0.00 0.00 89 1022.3
20260906051518 13 68 4.8 6.4 0.00 0.00 0.00 88 1022.7
20260906050519 13 68 3.2 4.8 0.00 0.00 0.00 88 1022.7
20260906045518 13 68 3.2 4.8 0.00 0.00 0.00 88 1022.7
20260906044521 13 68 4.8 6.4 0.00 0.00 0.00 87 1022.6
20260906043519 13 90 3.2 4.8 0.00 0.00 0.00 87 1023.0
20260906042540 13 90 1.6 3.2 0.00 0.00 0.00 87 1023.0
20260906041539 13 90 3.2 4.8 0.00 0.00 0.00 87 1023.2
20260906040538 13 0.0 1.6 0.00 0.00 0.00 87 1023.4
20260906035519 13 0.0 3.2 0.00 0.00 0.00 87 1023.5
20260906034522 13 0.0 0.0 0.00 0.00 0.00 87 1023.7
20260906033519 13 0.0 1.6 0.00 0.00 0.00 87 1023.8
20260906032521 13 0.0 0.0 0.00 0.00 0.00 87 1024.0
20260906031521 13 90 1.6 3.2 0.00 0.00 0.00 87 1024.3
20260906030520 13 0.0 0.0 0.00 0.00 0.00 87 1024.3
20260906025517 13 0.0 0.0 0.00 0.00 0.00 86 1024.4
20260906024540 13 0.0 0.0 0.00 0.00 0.00 86 1024.4
20260906023518 13 0.0 0.0 0.00 0.00 0.00 86 1024.5
20260906022519 14 0.0 0.0 0.00 0.00 0.00 86 1024.7
20260906021520 14 0.0 0.0 0.00 0.00 0.00 86 1024.7
20260906020523 14 0.0 0.0 0.00 0.00 0.00 85 1024.9
20260906015519 14 0.0 0.0 0.00 0.00 0.00 85 1024.7
20260906014539 14 0.0 3.2 0.00 0.00 0.00 85 1024.9
20260906013518 14 0.0 0.0 0.00 0.00 0.00 84 1025.1
20260906012537 14 0.0 0.0 0.00 0.00 0.00 84 1024.8
20260906011518 14 0.0 0.0 0.00 0.00 0.00 84 1024.9
20260906010519 14 0.0 0.0 0.00 0.00 0.00 84 1024.8
20260906005518 14 0.0 0.0 0.00 0.00 0.00 84 1025.2
20260906004520 14 68 1.6 3.2 0.00 0.00 0.00 84 1025.3
20260906003519 13 0.0 3.2 0.00 0.00 0.00 83 1025.5
20260906002517 13 158 1.6 4.8 0.00 0.00 0.00 83 1025.4
20260906001519 13 158 1.6 3.2 0.00 0.00 0.00 83 1025.6
20260906000540 13 0.0 3.2 0.00 0.00 0.00 83 1025.7
20260905235519 13 158 3.2 4.8 0.00 0.00 0.00 83 1025.9
20260905234542 13 158 1.6 4.8 0.00 0.00 0.00 83 1026.0
20260905233518 13 0.0 0.0 0.00 0.00 0.00 83 1026.0
20260905232518 13 0.0 0.0 0.00 0.00 0.00 83 1026.0
20260905231517 13 0.0 0.0 0.00 0.00 0.00 83 1026.2
20260905230521 13 0.0 0.0 0.00 0.00 0.00 83 1026.2
20260905225520 13 0.0 0.0 0.00 0.00 0.00 82 1026.2
20260905224525 13 0.0 0.0 0.00 0.00 0.00 82 1026.3
20260905223520 13 0.0 0.0 0.00 0.00 0.00 82 1026.0
20260905222519 13 0.0 0.0 0.00 0.00 0.00 81 1026.2
20260905221521 13 0.0 0.0 0.00 0.00 0.00 81 1026.1